Regional Weather Roundup
Issued by NWS New Orleans/Baton Rouge, LA

Home | Current Version | Previous Version | Text Only | Print | Product List | Glossary On
Versions: 1 2 3 4 5 6 7 8 9 10 11 12 13 14 15 16 17 18 19 20 21 22 23 24 25 26 27 28 29 30 31 32 33 34 35 36 37 38 39 40 41 42 43 44 45 46 47 48 49 50
000
ASUS44 KLIX 300210
RWRLIX
NEW ORLEANS REGIONAL WEATHER ROUNDUP
NATIONAL WEATHER SERVICE NEW ORLEANS LA
900 PM CDT TUE JUL 29 2014

NOTE: "FAIR" INDICATES FEW OR NO CLOUDS BELOW 12,000 FEET WITH NO
      SIGNIFICANT WEATHER AND/OR OBSTRUCTIONS TO VISIBILITY.
      SKY/WX - SKY CONDITION AND SIGNIFICANT WEATHER.
      TMP - AIR TEMPERATURE.     DP    - DEWPOINT TEMPERATURE.
      RH  - RELATIVE HUMIDITY.   PRES  - PRESSURE.
      HI  - HEAT INDEX.          WCI   - WIND CHILL INDEX.

*  THESE STATIONS ARE NOT NWS OR FAA STATIONS AND ARE NOT UNDER
   NWS QUALITY CONTROL.

LAZ038-040-048-061>063-065>067-069-300300-
SOUTHEAST LOUISIANA

CITY           SKY/WX    TMP DP  RH WIND       PRES   REMARKS
N.O. AUDUBON     N/A     82  67  59 MISG        N/A
N.O. INTL ARPT MOCLDY    81  63  54 N6        30.01S
N.O. LAKEFRONT CLEAR     84  65  52 N10       30.01S
N.O. DOWNTOWN*   N/A     84  61  45 N6        30.01S
SLIDELL        CLEAR     77  70  79 CALM      30.00S
BATON ROUGE    CLEAR     77  69  76 CALM      30.02S
BOOTHVILLE     PTCLDY    79  71  76 CALM      30.01S
BELLE CHASSE   MOCLDY    74  67  78 CALM      30.01S
BOGALUSA*        N/A     76  69  78 NW3       30.03R
GALLIANO*      NOT AVBL
NEW ROADS*       N/A     77  70  79 CALM      30.03R
GONZALES*        N/A     74  72  92 CALM      30.02R
HAMMOND*       PTCLDY    77  68  73 CALM      30.03S
HOUMA*         CLEAR     78  69  72 N3        30.01F
PORT FOURCHON* PTCLDY    84  68  58 N9        30.03R

$$

MSZ070-080>082-300300-
SOUTHERN MISSISSIPPI

CITY           SKY/WX    TMP DP  RH WIND       PRES   REMARKS
MCCOMB         CLEAR     80  65  59 N8        30.04R
GULFPORT       CLEAR     82  67  60 CALM      29.99R
BILOXI         CLEAR     82  67  60 CALM      29.99R
PASCAGOULA     PTCLDY    74  71  91 CALM      29.99R
STENNIS ARPT*  CLEAR    N/A N/A N/A CALM      30.01R

$$

COASTAL OBSERVATIONS
LAKE AND NEARSHORE STATIONS

STATION/POSITION TIME  TEMP    WIND        PRES    WAVE
                       AIR SEA DIR/SP/G            HT/PER
                 (UTC) (F)     (DEG/KT/KT) (MB)    (FT/S)
PASCAGOULA       0200   82     320/  5/  6 1015.1
WAVELAND YACHT   0200   81     290/  4/  5 1015.3
GRAND ISLE       0200   84 87   10/  8/ 10 1016.9
SOUTHWEST PASS   0200   83 85   40/  5/  6 1016.5
NEW CANAL        0200   86 85   10/  9/ 11 1016.6
SHELL BEACH      0200   85 82  340/ 10/ 11 1015.9

OFFSHORE STATIONS

STATION/POSITION TIME  TEMP    WIND        PRES    WAVE
                       AIR SEA DIR/SP/G            HT/PER
                 (UTC) (F)     (DEG/KT/KT) (MB)    (FT/S)
64 S DAUPHIN ISL 0052   83 86  330/ 10/ 12 1015.8

$$




USA.gov is the U.S. government's official web portal to all federal, state and local government web resources and services.